Weather History for LIEA - January, 2014

Change the Weather History Date:

Tuesday, January 7, 2014

  Actual Average Record
Temperature  
Mean Temperature 50 °F -  
Max Temperature 60 °F 55 °F 66 °F (2011)
Min Temperature 39 °F 39 °F 30 °F (2002)
Degree Days  
Heating Degree Days 16    
Moisture  
Dew Point 46 °F    
Average Humidity 88    
Maximum Humidity 100    
Minimum Humidity 61    
Precipitation  
Precipitation 0.00 in 0.09 in - ()
Sea Level Pressure  
Sea Level Pressure 30.26 in    
Wind  
Wind Speed 4 mph ()    
Max Wind Speed 12 mph    
Max Gust Speed -    
Visibility 5.3 miles    
Events Fog    
Averages and records for this station are not official NWS values.
T = Trace of Precipitation, MM = Missing Value Source: Averaged Metar Reports

Daily Weather History Graph

Daily Weather History Graph

Search for Another Location

Airport or City:

Trip Planner

Search our weather history database for the weather conditions in past years. The results will help you decide how hot, cold, wet, or windy it might be!

Date:

Astronomy

Jan. 07, 2014 Rise Set
Actual Time 7:50 AM CET 5:15 PM CET
Civil Twilight 7:20 AM CET 5:46 PM CET
Nautical Twilight 6:46 AM CET 6:20 PM CET
Astronomical Twilight 6:13 AM CET 6:53 PM CET
Moon 11:28 AM CET (1/7) No Moon Set
Length of Visible Light 10h 26m
Length of Day
9h 25m
Waxing Crescent, 42% of the Moon is Illuminated
Jan 7
Waxing Crescent
Jan 8
First Quarter
Jan 16
Full
Jan 24
Last Quarter
Jan 30
New

Hourly Weather History & Observations

Time (CET) Temp. Windchill Dew Point Humidity Pressure Visibility Wind Dir Wind Speed Gust Speed Precip Events Conditions
12:20 AM 41.0 °F 39.0 °F 39.2 °F 93% 30.21 in 3.7 mi North 3.5 mph - N/A   Unknown
12:50 AM 41.0 °F 38.0 °F 41.0 °F 100% 30.21 in 3.7 mi NE 4.6 mph - N/A   Unknown
1:00 AM 42 °F - 41 °F 97% 30.24 in 4 mi NE 4.6 mph - -  
1:20 AM 41.0 °F - 41.0 °F 100% 30.21 in 5.0 mi North 1.2 mph - N/A   Unknown
1:50 AM 42.8 °F 41.1 °F 41.0 °F 93% 30.21 in 5.0 mi NE 3.5 mph - N/A   Partly Cloudy
2:20 AM 42.8 °F - 42.8 °F 100% 30.21 in 5.0 mi Variable 2.3 mph - N/A   Partly Cloudy
2:50 AM 44.6 °F 43.1 °F 42.8 °F 93% 30.21 in - NE 3.5 mph - N/A   Clear
3:20 AM 46.4 °F 45.2 °F 46.4 °F 100% 30.21 in - NNE 3.5 mph - N/A   Clear
3:50 AM 48.2 °F - 48.2 °F 100% 30.21 in - Variable 2.3 mph - N/A   Clear
4:00 AM 46 °F - 45 °F 95% 30.23 in 4 mi NE 1.2 mph - -  
4:20 AM 46.4 °F - 44.6 °F 93% 30.21 in - Variable 1.2 mph - N/A   Clear
4:50 AM 50.0 °F - 50.0 °F 100% 30.21 in - Variable 2.3 mph - N/A   Clear
5:20 AM 48.2 °F - 46.4 °F 93% 30.21 in - SSE 3.5 mph - N/A   Clear
5:50 AM 46.4 °F 45.2 °F 44.6 °F 93% 30.21 in - ENE 3.5 mph - N/A   Clear
6:20 AM 46.4 °F 44.3 °F 44.6 °F 93% 30.24 in - NE 4.6 mph - N/A   Clear
6:50 AM 44.6 °F 43.1 °F 42.8 °F 93% 30.24 in - NE 3.5 mph - N/A   Clear
7:00 AM 46 °F - 44 °F 91% 30.25 in 4 mi ENE 2.3 mph - -  
7:20 AM 46.4 °F 44.3 °F 44.6 °F 93% 30.24 in - NNE 4.6 mph - N/A   Clear
7:50 AM 44.6 °F 43.1 °F 42.8 °F 93% 30.24 in - NE 3.5 mph - N/A   Clear
8:20 AM 44.6 °F - 42.8 °F 93% 30.27 in - NE 2.3 mph - N/A   Clear
8:50 AM 46.4 °F - 46.4 °F 100% 30.27 in - East 2.3 mph - N/A   Clear
9:20 AM 50.0 °F - 48.2 °F 94% 30.27 in 6.2 mi Variable 1.2 mph - N/A   Partly Cloudy
9:50 AM 51.8 °F - 50.0 °F 94% 30.30 in 6.2 mi Variable 1.2 mph - N/A   Scattered Clouds
10:00 AM 54 °F - 51 °F 84% 30.31 in 9 mi East 1.2 mph - -   Partly Cloudy
10:20 AM 55.4 °F - 51.8 °F 88% 30.30 in 6.2 mi Variable 2.3 mph - N/A   Scattered Clouds
10:50 AM 59.0 °F - 50.0 °F 72% 30.30 in 6.2 mi South 10.4 mph - N/A   Partly Cloudy
11:20 AM 59.0 °F - 50.0 °F 72% 30.30 in 6.2 mi South 10.4 mph - N/A   Partly Cloudy
11:50 AM 59.0 °F - 51.8 °F 77% 30.30 in 6.2 mi SSW 11.5 mph - N/A   Partly Cloudy
12:20 PM 59.0 °F - 50.0 °F 72% 30.27 in 6.2 mi South 11.5 mph - N/A   Scattered Clouds
12:50 PM 59.0 °F - 50.0 °F 72% 30.27 in 6.2 mi South 11.5 mph - N/A   Partly Cloudy
1:00 PM 60 °F - 50 °F 61% 30.28 in 9 mi South 10.4 mph - -   Partly Cloudy
1:20 PM 59.0 °F - 50.0 °F 72% 30.27 in 6.2 mi South 10.4 mph - N/A   Partly Cloudy
1:50 PM 59.0 °F - 50.0 °F 72% 30.27 in 6.2 mi SSW 11.5 mph - N/A   Partly Cloudy
2:20 PM 59.0 °F - 50.0 °F 72% 30.27 in 6.2 mi SSW 10.4 mph - N/A   Partly Cloudy
2:50 PM 59.0 °F - 50.0 °F 72% 30.27 in 6.2 mi SSW 10.4 mph - N/A   Partly Cloudy
3:20 PM 59.0 °F - 50.0 °F 72% 30.27 in 6.2 mi SSW 11.5 mph - N/A   Partly Cloudy
3:50 PM 59.0 °F - 50.0 °F 72% 30.27 in 6.2 mi SSW 9.2 mph - N/A   Partly Cloudy
4:00 PM 58 °F - 51 °F 70% 30.27 in 12 mi SSW 9.2 mph - -   Scattered Clouds
4:50 PM 55.4 °F - 50.0 °F 82% 30.27 in - SSW 5.8 mph - N/A   Clear
5:20 PM 55.4 °F - 50.0 °F 82% 30.27 in - Variable 1.2 mph - N/A   Clear
5:50 PM 53.6 °F - 50.0 °F 88% 30.27 in - Calm Calm - N/A   Clear
8:50 PM 46.4 °F - 44.6 °F 93% 30.30 in 3.7 mi Variable 2.3 mph - N/A Fog Shallow Fog
9:20 PM 44.6 °F - 42.8 °F 93% 30.30 in 3.7 mi North 2.3 mph - N/A Fog Shallow Fog
9:50 PM 44.6 °F - 42.8 °F 93% 30.33 in 1.6 mi Calm Calm - N/A Fog Patches of Fog
10:00 PM 44 °F - 43 °F 95% 30.34 in 2 mi NE 1.2 mph - - Fog Patches of Fog
10:20 PM 42.8 °F - 42.8 °F 100% 30.33 in 4.3 mi East 1.2 mph - N/A Fog Patches of Fog
10:50 PM 42.8 °F - 42.8 °F 100% 30.33 in 1.6 mi Calm Calm - N/A Fog Shallow Fog
11:50 PM 44.6 °F 43.1 °F 42.8 °F 93% 30.33 in 0.6 mi NE 3.5 mph - N/A Fog Shallow Fog